Regional Weather Roundup
Issued by NWS

Home | Current Version | Previous Version | Text Only | Print | Product List | Glossary On
Versions: 1 2 3 4 5 6 7 8 9 10 11 12 13 14 15 16 17 18 19 20 21 22 23 24 25 26 27 28 29 30 31 32 33 34 35 36 37 38 39 40 41 42 43 44 45 46 47 48 49 50
000
ASUS43 KOAX 222102
RWRNE

WEATHER ROUNDUP FOR NEBRASKA
NATIONAL WEATHER SERVICE OMAHA NE
400 PM CDT MON MAY 22 2017

NOTES: SATELLITE DATA IS BEING USED TO AUGMENT CLOUD COVER ABOVE
       12000 FEET.
       "FAIR" INDICATES FEW OR NO CLOUDS BELOW 12,000 FEET WITH NO
       SIGNIFICANT WEATHER AND/OR OBSTRUCTIONS TO VISIBILITY.

  * THESE STATIONS DO NOT REPORT WEATHER SUCH AS RAIN...SNOW OR FOG.

NEZ001>004-019>022-054>056-222200-
NEBRASKA PANHANDLE

CITY           SKY/WX    TMP DP  RH WIND       PRES   REMARKS
SCOTTSBLUFF    CLOUDY    53  41  63 NW18G29   30.10R
ALLIANCE       LGT RAIN  46  42  86 N18G31    30.07R
CHADRON        CLOUDY    51  45  79 N5        30.08R
GORDON         LGT RAIN  50  44  80 NW17G25   30.05R
KIMBALL        RAIN      47  40  76 N23G32    30.14R
SIDNEY         CLOUDY    54  43  66 N28       30.08R
$$

NEZ057>060-069>072-079>082-222200-
SOUTHWEST NEBRASKA

CITY           SKY/WX    TMP DP  RH WIND       PRES   REMARKS
NORTH PLATTE   CLOUDY    69  43  38 N10       29.96S
IMPERIAL       PTSUNNY   66  43  43 N18       29.99S
LEXINGTON      SUNNY     69  45  42 N15       29.93S
MCCOOK         SUNNY     73  40  30 NW17G28   29.94F
OGALLALA       CLOUDY    66  40  38 NW17G23   29.99F
$$

NEZ005>010-023>029-035>040-094-222200-
NORTH CENTRAL NEBRASKA

CITY           SKY/WX    TMP DP  RH WIND       PRES   REMARKS
VALENTINE      CLOUDY    59  38  45 NW15      29.95S
AINSWORTH      MOSUNNY   61  45  55 NW12      29.95R THUNDER
BROKEN BOW     PTSUNNY   67  44  43 N20       29.94F
O`NEILL        PTSUNNY   65  43  46 W12       29.92S
ORD            MOSUNNY   66  44  45 NW18G24   29.92
THEDFORD       CLOUDY    65  38  36 NW12      29.96F
$$

NEZ041-046>049-061>064-073>077-083>087-222200-
SOUTH CENTRAL NEBRASKA

CITY           SKY/WX    TMP DP  RH WIND       PRES   REMARKS
GRAND ISLAND   LGT RAIN  62  52  69 SW17      29.92R
AURORA         CLOUDY    71  40  32 NW17G23   29.88F
HASTINGS       CLOUDY    70  44  39 N23G31    29.92S
HEBRON         PTSUNNY   68  54  60 S12       29.92F
HOLDREGE       MOSUNNY   72  39  30 NW10G18   29.91F
KEARNEY *      PTSUNNY   72  46  40 N24G31    29.92S
$$

NEZ011>018-030>034-042>045-222200-
NORTHEAST NEBRASKA

CITY           SKY/WX    TMP DP  RH WIND       PRES   REMARKS
NORFOLK        PTSUNNY   64  42  44 NW16      29.89F
ALBION         CLOUDY    65  44  44 NW14      29.91F
BLAIR          CLOUDY    74  44  34 W16       29.86F
FREMONT        PTSUNNY   73  44  36 W7        29.86F
TEKAMAH        MOSUNNY   72  48  42 SW12      29.83F
WAYNE          CLOUDY    64  47  53 NW18      29.89S
$$

NEZ050>053-065>068-078-088>093-222200-
SOUTHEAST NEBRASKA

CITY           SKY/WX    TMP DP  RH WIND       PRES   REMARKS
LINCOLN        CLOUDY    71  52  50 S18       29.89F
OMAHA EPPLEY   CLOUDY    72  52  49 S16       29.86F
BEATRICE       CLOUDY    68  53  57 SW16      29.92F
FALLS CITY     LGT RAIN  61  54  77 SW14      29.96R
NEBRASKA CITY  PTSUNNY   67  48  50 SW17G26   29.92S
PLATTSMOUTH    CLOUDY    70  47  43 SW20      29.89F
$$

NEZ044-045-051>053-067-222200-
OMAHA AREA

CITY           SKY/WX    TMP DP  RH WIND       PRES   REMARKS
OMAHA EPPLEY   CLOUDY    72  52  49 S16       29.86F
BLAIR          CLOUDY    74  44  34 W16       29.86F
FREMONT        PTSUNNY   73  44  36 W7        29.86F
MILLARD        CLOUDY    74  54  49 SW10      29.86F
OFFUTT AFB     CLOUDY    71  52  50 S13G21    29.87F
PLATTSMOUTH    CLOUDY    70  47  43 SW20      29.89F
WAHOO          LGT RAIN  67  47  48 NW9G18    29.86F VSB 1
$$



USA.gov is the U.S. government's official web portal to all federal, state and local government web resources and services.